Flag for U.S.A. Weather past 2 weeks in Aurora, Colorado, U.S.A.

Now
41 °F

Passing clouds.


Feels Like: 39 °F
Forecast: 37 / 62 °F
Wind: 3 mph from West

Location: Buckley Air Force Base

Current Time: Oct 2, 2014 at 2:39:20 AM

Latest Report: Oct 2, 2014 at 1:58 AM


Visibility: 10 mi

Pressure: 29.98 "Hg

Humidity: 93%

Dew point: 39 °F

Location of AuroraLocation

Historic Weather in Aurora — Graph

°F

Aurora temperature yesterday

Maximum temperature yesterday: 66 °F (at 1:58 PM)
Minimum temperature yesterday: 42 °F (at 11:58 PM)
Average temperature yesterday: 50 °F

Past Weeks' High & Low Weather Summary

 TemperatureHumidityPressure
High88 °F (Sep 17, 3:58 PM)100% (Sep 21, 10:58 PM)30.31 "Hg (Sep 21, 10:58 PM)
Low41 °F (Oct 2, 12:58 AM)14% (Sep 17, 2:58 PM)29.64 "Hg (Oct 1, 2:58 PM)
Average64 °F52%29.91 "Hg
* Reported Sep 17 12:58 AM — Oct 2 12:58 AM, Aurora, Weather by CustomWeather, © 2014

Note: Actual official high and low records may vary slightly from our data, if they occured in-between our weather recording intervals... More about our weather records

Advertising

Aurora weather history for previous 24 hours

 ConditionsComfort  
Time TempWeatherWind HumidityBarometerVisibility
12:58 AM
Oct 2
41 °FLight rain. Mostly cloudy.3 mph92%29.98 "Hg10 mi
11:58 PM
Oct 1
42 °FLight rain. Mostly cloudy.9 mph100%29.98 "Hg9 mi
10:58 PM43 °FLight rain. Mostly cloudy.8 mph100%29.98 "Hg10 mi
9:58 PM43 °FRain. Mostly cloudy.5 mph100%29.98 "Hg8 mi
8:58 PM43 °FLow clouds.2 mph100%29.97 "Hg10 mi
7:58 PM44 °FLight rain. Mostly cloudy.2 mph99%29.95 "Hg7 mi
6:58 PM44 °FBroken clouds.7 mph98%29.93 "Hg10 mi
5:58 PM44 °FMostly cloudy.14 mph100%29.92 "Hg10 mi
4:58 PM46 °FLow clouds.15 mph99%29.86 "Hg10 mi
3:58 PM50 °FThundershowers. Partly sunny.10 mph90%29.79 "Hg10 mi
2:58 PM65 °FThundershowers. Partly sunny.3 mph31%29.64 "Hg10 mi
1:58 PM66 °FScattered showers. Partly sunny.9 mph30%29.66 "Hg10 mi
12:58 PM64 °FBroken clouds.5 mph35%29.70 "Hg10 mi
11:58 AM62 °FBroken clouds.2 mph35%29.72 "Hg10 mi
10:58 AM60 °FBroken clouds.6 mph42%29.75 "Hg10 mi
9:58 AM57 °FPartly sunny.5 mph42%29.78 "Hg10 mi
8:58 AM52 °FBroken clouds.6 mph57%29.78 "Hg10 mi
7:58 AM48 °FBroken clouds.8 mph63%29.80 "Hg10 mi
6:58 AM44 °FPartly cloudy.7 mph71%29.79 "Hg10 mi
5:58 AM45 °FPartly cloudy.7 mph68%29.77 "Hg10 mi
4:58 AM45 °FPassing clouds.7 mph66%29.75 "Hg10 mi
3:58 AM46 °FPassing clouds.9 mph68%29.75 "Hg10 mi
2:58 AM46 °FPassing clouds.7 mph69%29.76 "Hg10 mi
Weather by CustomWeather, © 2014

See weather overviewHow to use our weather pages